Starlink 31562

operational
NORAD ID: 59340 Int'l Des: 2024-057 Owner: SPXS Country: US Constellation: starlink
LEOCIRCULAR

Starlink 31562について

説明を読み込み中...

リアルタイム位置

3D地球を読み込み中...

次回通過

高度履歴

Altitude vs Time

uPlot chart will show altitude changes over time

軌道要素

1 59340U 24057W 25354.16436953 .00000593 00000-0 31067-4 0 9993
2 59340 43.0037 291.1747 0001206 267.6384 92.4329 15.27575977 97501
Epoch: Dec 20, 2025 • Age: 26 hours

現在のステータス

高度 494.3 km
速度 7.62 km/s
衛星直下点 -39.96°S, 13.87°W
打ち上げ日 Mar 25, 2024
運用期間 1.7 years
タイプ internet

技術仕様

分類 Payload
質量 730.00 kg
乾燥質量 700.00 kg
総質量 730.00 kg
長さ 0.30 m
直径 4.10 m
スパン 29.00 m
形状 Box + pan
製造者 SPXS
バスタイプ Starlink V2M
フェーズステータス In Orbit
所有者/国 SPXS/US

大規模コンステレーション

Loading constellations...